• In Lithuania
  • List of Countries
  • For 7 days
  • Water Temperature
  • Satellite Maps
  • Weather Map
  • Weather Widgets
  • user-avatar
    Login

    Hourly Weather Linz

    Today, 21 September, Thursday

    Time Temperature Precipitation Wind Pressure Humidity
    00:00 +9°C° 0.1 mm 1 mps 737 mmHg 95%
    01:00 +9°C° 0 mm 1 mps 737 mmHg 96%
    02:00 +9°C° 0.1 mm 1 mps 737 mmHg 96%
    03:00 +9°C° 0.1 mm 1 mps 737 mmHg 97%
    04:00 +8°C° 0.1 mm 2 mps 737 mmHg 97%
    05:00 +8°C° 0 mm 2 mps 737 mmHg 96%
    06:00 +8°C° 0 mm 2 mps 737 mmHg 96%
    07:00 +8°C° 0 mm 2 mps 737 mmHg 95%
    08:00 +9°C° 0 mm 2 mps 737 mmHg 91%
    09:00 +10°C° 0 mm 2 mps 737 mmHg 87%
    10:00 +12°C° 0 mm 3 mps 736 mmHg 83%
    11:00 +13°C° 0.1 mm 3 mps 736 mmHg 79%
    12:00 +13°C° 0.1 mm 3 mps 736 mmHg 75%
    13:00 +14°C° 0.1 mm 3 mps 735 mmHg 71%
    14:00 +16°C° 0.1 mm 3 mps 735 mmHg 71%
    15:00 +16°C° 0.1 mm 3 mps 735 mmHg 71%
    16:00 +16°C° 0.1 mm 2 mps 735 mmHg 71%
    17:00 +14°C° 0 mm 2 mps 735 mmHg 78%
    18:00 +13°C° 0 mm 2 mps 736 mmHg 85%
    19:00 +11°C° 0 mm 1 mps 736 mmHg 92%
    20:00 +10°C° 0 mm 1 mps 736 mmHg 92%
    21:00 +10°C° 0 mm 1 mps 736 mmHg 93%
    22:00 +10°C° 0 mm 1 mps 737 mmHg 93%
    23:00 +9°C° 0 mm 1 mps 737 mmHg 93%

    Tomorrow, 22 September, Friday

    Time Temperature Precipitation Wind Pressure Humidity
    00:00 +9°C° 0 mm 1 mps 737 mmHg 93%
    01:00 +9°C° 0 mm 1 mps 737 mmHg 94%
    02:00 +9°C° 0 mm 1 mps 737 mmHg 93%
    03:00 +9°C° 0 mm 1 mps 737 mmHg 93%
    04:00 +8°C° 0 mm 1 mps 737 mmHg 93%
    05:00 +9°C° 0 mm 1 mps 737 mmHg 92%
    06:00 +9°C° 0 mm 1 mps 737 mmHg 91%
    07:00 +10°C° 0 mm 1 mps 737 mmHg 90%
    08:00 +12°C° 0 mm 1 mps 737 mmHg 82%
    09:00 +14°C° 0 mm 1 mps 737 mmHg 74%
    10:00 +18°C° 0 mm 1 mps 737 mmHg 66%
    11:00 +18°C° 0 mm 1 mps 736 mmHg 64%
    12:00 +19°C° 0 mm 1 mps 736 mmHg 62%
    13:00 +20°C° 0 mm 1 mps 736 mmHg 60%
    14:00 +19°C° 0 mm 1 mps 736 mmHg 62%
    15:00 +19°C° 0 mm 1 mps 736 mmHg 64%
    16:00 +19°C° 0 mm 1 mps 736 mmHg 66%
    17:00 +16°C° 0 mm 1 mps 736 mmHg 73%
    18:00 +15°C° 0 mm 1 mps 737 mmHg 79%
    19:00 +12°C° 0 mm 0 mps 737 mmHg 85%
    20:00 +13°C° 0 mm 1 mps 737 mmHg 87%
    21:00 +12°C° 0 mm 1 mps 738 mmHg 89%
    22:00 +12°C° 0 mm 1 mps 738 mmHg 90%
    23:00 +11°C° 0 mm 1 mps 738 mmHg 91%

    Day after tomorrow, 23 September, Saturday

    Time Temperature Precipitation Wind Pressure Humidity
    00:00 +11°C° 0 mm 1 mps 738 mmHg 92%
    01:00 +11°C° 0 mm 1 mps 738 mmHg 92%
    02:00 +10°C° 0 mm 1 mps 738 mmHg 92%
    03:00 +10°C° 0 mm 1 mps 738 mmHg 93%
    04:00 +10°C° 0 mm 1 mps 738 mmHg 93%
    05:00 +10°C° 0 mm 1 mps 738 mmHg 92%
    06:00 +11°C° 0 mm 1 mps 738 mmHg 91%
    07:00 +11°C° 0 mm 1 mps 738 mmHg 90%
    08:00 +13°C° 0 mm 1 mps 738 mmHg 83%
    09:00 +15°C° 0 mm 1 mps 737 mmHg 76%
    10:00 +17°C° 0 mm 2 mps 737 mmHg 68%
    11:00 +18°C° 0 mm 2 mps 737 mmHg 66%
    12:00 +19°C° 0 mm 2 mps 737 mmHg 65%
    13:00 +19°C° 0 mm 2 mps 736 mmHg 63%
    14:00 +19°C° 0 mm 2 mps 736 mmHg 64%
    15:00 +19°C° 0 mm 2 mps 736 mmHg 65%
    16:00 +19°C° 0 mm 2 mps 735 mmHg 66%
    17:00 +17°C° 0.1 mm 2 mps 735 mmHg 73%
    18:00 +15°C° 0.1 mm 2 mps 736 mmHg 80%
    19:00 +13°C° 0.1 mm 1 mps 736 mmHg 87%
    20:00 +13°C° 0.2 mm 1 mps 736 mmHg 89%
    21:00 +13°C° 0.2 mm 1 mps 736 mmHg 90%
    22:00 +13°C° 0.2 mm 1 mps 736 mmHg 91%
    23:00 +12°C° 0.3 mm 1 mps 735 mmHg 91%

    24 September, Sunday

    Time Temperature Precipitation Wind Pressure Humidity
    00:00 +12°C° 0.3 mm 1 mps 735 mmHg 92%
    01:00 +12°C° 0.3 mm 1 mps 735 mmHg 93%
    02:00 +12°C° 0.3 mm 1 mps 735 mmHg 94%
    03:00 +12°C° 0.3 mm 1 mps 735 mmHg 94%
    04:00 +12°C° 0.3 mm 1 mps 735 mmHg 95%
    05:00 +12°C° 0.2 mm 1 mps 735 mmHg 95%
    06:00 +12°C° 0.2 mm 1 mps 735 mmHg 95%
    07:00 +12°C° 0.2 mm 1 mps 735 mmHg 96%
    08:00 +13°C° 0.1 mm 1 mps 735 mmHg 95%
    09:00 +13°C° 0.1 mm 1 mps 735 mmHg 93%
    10:00 +14°C° 0.1 mm 2 mps 735 mmHg 92%
    11:00 +14°C° 0.1 mm 2 mps 735 mmHg 90%
    12:00 +14°C° 0.1 mm 2 mps 735 mmHg 88%
    13:00 +15°C° 0.1 mm 2 mps 735 mmHg 87%
    14:00 +15°C° 0.1 mm 2 mps 734 mmHg 87%
    15:00 +15°C° 0.1 mm 1 mps 734 mmHg 88%
    16:00 +15°C° 0.1 mm 1 mps 734 mmHg 89%
    17:00 +14°C° 0.3 mm 1 mps 735 mmHg 91%
    18:00 +13°C° 0.3 mm 1 mps 735 mmHg 94%
    19:00 +13°C° 0.3 mm 1 mps 735 mmHg 97%
    20:00 +13°C° 1.2 mm 1 mps 735 mmHg 97%
    21:00 +13°C° 1.2 mm 1 mps 735 mmHg 97%
    22:00 +13°C° 1.2 mm 1 mps 735 mmHg 97%
    23:00 +13°C° 1.2 mm 1 mps 735 mmHg 97%

    25 September, Monday

    Time Temperature Precipitation Wind Pressure Humidity
    00:00 +13°C° 1.2 mm 1 mps 735 mmHg 97%
    01:00 +13°C° 1.2 mm 1 mps 735 mmHg 97%
    02:00 +12°C° 1.6 mm 1 mps 734 mmHg 97%
    03:00 +12°C° 1.6 mm 1 mps 734 mmHg 97%
    04:00 +12°C° 1.6 mm 1 mps 734 mmHg 97%
    05:00 +12°C° 1.5 mm 1 mps 734 mmHg 97%
    06:00 +12°C° 1.5 mm 1 mps 734 mmHg 96%
    07:00 +12°C° 1.5 mm 1 mps 734 mmHg 96%
    08:00 +12°C° 0.5 mm 1 mps 734 mmHg 95%
    09:00 +13°C° 0.5 mm 1 mps 734 mmHg 93%
    10:00 +13°C° 0.5 mm 1 mps 734 mmHg 92%
    11:00 +14°C° 0.2 mm 1 mps 734 mmHg 90%
    12:00 +15°C° 0.2 mm 1 mps 734 mmHg 88%
    13:00 +15°C° 0.2 mm 1 mps 734 mmHg 87%
    14:00 +15°C° 0.1 mm 2 mps 734 mmHg 86%
    15:00 +16°C° 0.1 mm 2 mps 734 mmHg 85%
    16:00 +16°C° 0.1 mm 2 mps 734 mmHg 85%
    17:00 +15°C° 0 mm 2 mps 735 mmHg 88%
    18:00 +14°C° 0 mm 2 mps 735 mmHg 92%
    19:00 +13°C° 0 mm 1 mps 735 mmHg 96%
    20:00 +13°C° 0 mm 1 mps 735 mmHg 96%
    21:00 +12°C° 0 mm 1 mps 735 mmHg 96%
    22:00 +12°C° 0 mm 1 mps 735 mmHg 96%
    23:00 +12°C° 0 mm 1 mps 735 mmHg 96%

    26 September, Tuesday

    Time Temperature Precipitation Wind Pressure Humidity
    00:00 +12°C° 0 mm 1 mps 735 mmHg 96%
    01:00 +11°C° 0 mm 1 mps 735 mmHg 96%
    02:00 +11°C° 0 mm 1 mps 735 mmHg 95%
    03:00 +11°C° 0 mm 1 mps 735 mmHg 95%
    04:00 +11°C° 0 mm 1 mps 735 mmHg 95%
    05:00 +11°C° 0 mm 1 mps 735 mmHg 95%
    06:00 +11°C° 0 mm 1 mps 735 mmHg 94%
    07:00 +11°C° 0 mm 1 mps 735 mmHg 93%
    08:00 +13°C° 0 mm 1 mps 735 mmHg 87%
    09:00 +15°C° 0 mm 1 mps 735 mmHg 80%
    10:00 +18°C° 0 mm 1 mps 735 mmHg 73%
    11:00 +18°C° 0 mm 2 mps 735 mmHg 70%
    12:00 +19°C° 0 mm 2 mps 735 mmHg 67%
    13:00 +20°C° 0 mm 2 mps 735 mmHg 65%
    14:00 +20°C° 0.3 mm 2 mps 735 mmHg 67%
    15:00 +20°C° 0.3 mm 2 mps 735 mmHg 70%
    16:00 +20°C° 0.3 mm 2 mps 735 mmHg 73%
    17:00 +18°C° 0 mm 2 mps 735 mmHg 80%
    18:00 +17°C° 0 mm 2 mps 735 mmHg 86%
    19:00 +15°C° 0 mm 2 mps 735 mmHg 93%
    20:00 +14°C° 0 mm 2 mps 736 mmHg 93%
    21:00 +14°C° 0 mm 1 mps 736 mmHg 93%
    22:00 +13°C° 0 mm 1 mps 736 mmHg 93%
    23:00 +13°C° 0 mm 1 mps 736 mmHg 93%
    Show more